Regional Weather Roundup
Issued by NWS

Home | Current Version | Previous Version | Graphics & Text | Print | Product List | Glossary On
Versions: 1 2 3 4 5 6 7 8 9 10 11 12 13 14 15 16 17 18 19 20 21 22 23 24 25 26 27 28 29 30 31 32 33 34 35 36 37 38 39 40 41 42 43 44 45 46 47 48 49 50
902
ASUS43 KLMK 231810
RWRKY
KENTUCKY REGIONAL WEATHER ROUNDUP
NATIONAL WEATHER SERVICE LOUISVILLE KY
200 PM EDT THU MAR 23 2017

NOTE "FAIR" INDICATES FEW OR NO CLOUDS BELOW 12,000 FEET
WITH NO SIGNIFICANT WEATHER AND/OR OBSTRUCTIONS TO VISIBILITY.

KYZ001>023-026-027-061>063-070>075-231900-
WESTERN AND SOUTH CENTRAL KENTUCKY

CITY           SKY/WX    TMP DP  RH WIND       PRES   REMARKS
PADUCAH        SUNNY     52  39  61 E7        30.28F
HENDERSON      CLOUDY    41  30  65 E8        30.34F
OWENSBORO      CLOUDY    48  27  44 CALM      30.37R
HOPKINSVILLE   DRIZZLE   43  38  82 SE10      30.30F
BOWLING GREEN  CLOUDY    55  30  38 S5        30.33F
GLASGOW        PTSUNNY   59  31  33 S6        30.33F
$$

KYZ024-025-028>034-038-045-046-053-231900-
NORTH CENTRAL KENTUCKY

CITY           SKY/WX    TMP DP  RH WIND       PRES   REMARKS
LOUISVILLE/SDF PTSUNNY   55  20  25 VRB5      30.36F
LOUISVILLE/LOU CLOUDY    54  24  31 W3        30.37F
FORT KNOX      MOSUNNY   58  25  28 VRB3      30.33F
$$

KYZ035>037-039>044-047>052-055>060-089>105-231900-
NORTHEAST KENTUCKY

CITY           SKY/WX    TMP DP  RH WIND       PRES   REMARKS
LEXINGTON      SUNNY     56  24  29 SE5       30.37F
COVINGTON      MOSUNNY   51  20  29 SE8       30.37F
FRANKFORT      SUNNY     55  23  28 E7        30.36F
$$

KYZ054-064>069-076>088-106>120-231900-
SOUTHEAST KENTUCKY

CITY           SKY/WX    TMP DP  RH WIND       PRES   REMARKS
JACKSON        SUNNY     60  26  27 VRB7      30.37F
LONDON         SUNNY     62  25  24 S12       30.36F
SOMERSET       SUNNY     61  28  29 CALM      30.36F
MIDDLESBORO    SUNNY     63  29  27 S7        30.39F
MONTICELLO     CLOUDY    66  33  29 SW15      30.36F
$$





USA.gov is the U.S. government's official web portal to all federal, state and local government web resources and services.